Location: Alsip
(41.6689°N, 87.7387°W)
Time: 18:04:03
(UTC+00:00)

STARLINK-2717 - Pass Details

Date: 02 August 2021
Orbit: 546 x 548 km, 53.1° (Epoch: 22 September)

Event Time Altitude Azimuth Distance (km) Brightness Sun altitude
Rises 02:24:29 0° 298° (WNW) 2,724 9.0 -12.9°
Reaches altitude 10° 02:26:59 10° 286° (WNW) 1,826 7.4 -13.3°
Maximum altitude 02:30:26 26° 229° (SW) 1,104 5.2 -13.8°
Enters shadow 02:33:17 13° 178° (S) 1,620 5.6 -14.2°
